Regional Weather Roundup
Issued by NWS

Home | Current Version | Previous Version | Text Only | Print | Product List | Glossary On
Versions: 1 2 3 4 5 6 7 8 9 10 11 12 13 14 15 16 17 18 19 20 21 22 23 24 25 26 27
000
ASUS46 KPQR 270810
RWROR

OREGON REGIONAL WEATHER ROUNDUP
NATIONAL WEATHER SERVICE PORTLAND OR
100 AM PDT TUE SEP 27 2016

NOTE: "FAIR" INDICATES FEW OR NO CLOUDS BELOW 12,000 FEET WITH
NO SIGNIFICANT WEATHER AND/OR OBSTRUCTIONS TO VISIBILITY.

ORZ001>013-270900-
NORTHWEST OREGON


CITY           SKY/WX    TMP DP  RH WIND       PRES   REMARKS
ASTORIA        CLOUDY    63  60  90 W3        30.13S
NEWPORT        CLOUDY    57  57 100 N12       30.16R FOG
PORTLAND       CLEAR     64  58  80 NW8       30.10R
VANCOUVER WA   CLEAR     64  58  80 NW7       30.09R
SCAPPOOSE      CLEAR     63  57  81 NW7       30.08R
HILLSBORO      CLEAR     62  58  86 NW7       30.09R
AURORA         CLEAR     63  56  78 N6        30.10R
MCMINNVILLE    CLEAR     60  55  83 NW5       30.10R
SALEM          CLEAR     59  53  80 CALM      30.08R
CORVALLIS        N/A     61  55  82 NW12      30.10S
EUGENE         CLEAR     60  49  66 CALM      30.09R
$$

ORZ021-028-270900-
SOUTHWEST OREGON


CITY           SKY/WX    TMP DP  RH WIND       PRES   REMARKS
NORTH BEND       N/A     59  59 100 N6        30.14S
BROOKINGS      PTCLDY    55  54  96 SE3         N/A  FOG
ROSEBURG       CLEAR     64  50  60 CALM      30.08R
SEXTON SUMMIT  CLEAR     62  46  55 N14       30.17S
MEDFORD        CLEAR     68  51  54 S6        30.05R
$$

ORZ014>016-041-270900-
COLUMBIA GORGE


CITY           SKY/WX    TMP DP  RH WIND       PRES   REMARKS
TROUTDALE      CLOUDY    65  59  81 VRB3      30.09R
THE DALLES     CLEAR     68  52  56 S5        29.98R
$$

ORZ029>031-041-044-049-050-061>064-502-503-505>511-270900-
EASTERN OREGON


CITY           SKY/WX    TMP DP  RH WIND       PRES   REMARKS
REDMOND        CLEAR     58  38  47 S5        30.11S
BEND           CLEAR     59  41  51 CALM      30.13S
PRINEVILLE     CLEAR     54  36  50 CALM      30.12S
KLAMATH FALLS  CLEAR     50  38  63 CALM      30.17S
LAKEVIEW       CLEAR     45  28  53 N9        30.21S
HERMISTON      CLEAR     57  47  69 CALM      29.96S
PENDLETON      CLEAR     59  46  62 SE7       30.00S
JOHN DAY       CLEAR     63  37  37 SW6       30.14R
MEACHAM        CLEAR     50  37  61 CALM      30.13S
LA GRANDE      CLEAR     72  36  26 S12G20    30.08S
BAKER CITY     CLEAR     47  36  65 CALM      30.15S
BURNS          CLEAR     46  31  55 W7        30.16F
ROME             N/A     52  35  52 CALM      30.15S
ONTARIO        CLEAR     52  42  69 CALM      30.11F
$$




USA.gov is the U.S. government's official web portal to all federal, state and local government web resources and services.